www.pogodaiklimat.ru

Погода и климат >> Архив погоды >> Бразилия >> Sao Romao


ПОГОДА в Sao Romao

  • Прогноз погоды в Sao Romao
  • Монитор погоды в Sao Romao
  • Климат города

АРХИВ ПОГОДЫ в Sao Romao

Время (UTC), дата Ветер
(напр.,м/с)
 
Видим.   Явления Облачность Т
(С)
Тd
(С)
f
(%)
Тe
(С)
Тes
(С)
Комфортность P
(гПа)
Po
(гПа)
Тmin
(С)
Tmax
(С)
R
(мм)
R24
(мм)
S
(см)
02 8.12 С 1
{1}
н/о н/о +22.7 +21.3 92 +30 +30 очень
душно
1013.9 958.1
01 8.12 С 1
{2}
н/о н/о +23.7 +21.9 90 +31 +31 очень
душно
1013.3 957.7
03 8.12 С 1
{2}
н/о н/о +22.2 +21.1 93 +29 +29 очень
душно
1013.4 957.5
04 8.12 СЗ 1
{2}
н/о н/о +22.2 +21.1 93 +29 +29 очень
душно
1012.7 956.8
05 8.12 В 1
{1}
н/о н/о +21.2 +20.4 95 +26 +26 душно 1012.5 956.5
06 8.12 штиль 0
{1}
н/о н/о +21.4 +20.8 96 +27 +27 душно 1012.4 956.4
08 8.12 штиль 0
{1}
н/о н/о +20.7 +19.9 95 +25 +25 комфорт 1013.1 956.9
07 8.12 З 1
{1}
н/о н/о +21.5 +20.9 96 +27 +27 душно 1012.6 956.6
09 8.12 С 1
{1}
н/о н/о +21.1 +20.6 97 +26 +26 душно 1013.9 957.8
10 8.12 штиль 0
{1}
н/о н/о +23.0 +22.3 96 +31 +31 очень
душно
1014.1 958.3
11 8.12 С 1
{2}
н/о н/о +24.6 +22.2 87 +32 +32 очень
душно
1013.9 958.4
12 8.12 СЗ 1
{2}
н/о н/о +22.3 +21.1 93 +29 +29 очень
душно
1015.2 959.2 3
14 8.12 С 1
{3}
н/о н/о +23.0 +22.0 94 +31 +31 очень
душно
1014.9 959.1 0.2
13 8.12 С 1
{2}
н/о н/о +22.8 +22.0 95 +31 +31 очень
душно
1014.9 959.0 7
15 8.12 С 1
{3}
н/о н/о +23.4 +22.2 93 +32 +32 очень
душно
1014.6 958.9 0.2
16 8.12 С 1
{3}
н/о н/о +24.0 +22.5 91 +31 +31 очень
душно
1013.5 957.9
17 8.12 СВ 1
{2}
н/о н/о +24.7 +22.3 87 +32 +32 очень
душно
1012.0 956.6
18 8.12 Ю 1
{1}
н/о н/о +24.1 +22.2 89 +31 +31 очень
душно
1012.2 956.7
20 8.12 Ю 1
{2}
н/о н/о +24.1 +22.6 91 +32 +32 очень
душно
1011.1 955.7
19 8.12 Ю 1
{2}
н/о н/о +23.4 +22.4 94 +32 +32 очень
душно
1011.5 955.9 0.4
21 8.12 Ю 1
{2}
н/о н/о +23.3 +22.2 94 +32 +32 очень
душно
1012.4 956.8
22 8.12 ЮВ 1
{2}
н/о н/о +23.0 +22.1 95 +31 +31 очень
душно
1013.8 958.0
23 8.12 В 1
{2}
н/о н/о +22.6 +21.9 96 +30 +30 очень
душно
1013.7 957.9
00 9.12 Ю 1
{2}
н/о н/о +22.8 +21.7 94 +31 +31 очень
душно
1015.5 959.6 0.6
02 9.12 ЮВ 1
{2}
н/о н/о +21.2 +20.3 95 +26 +26 душно 1016.5 960.2
01 9.12 ЮВ 1
{2}
н/о н/о +21.9 +21.0 95 +28 +28 душно 1016.0 959.9 0.6
03 9.12 штиль 0
{2}
н/о н/о +21.3 +20.6 96 +27 +27 душно 1016.3 960.1
04 9.12 ЮВ 1
{2}
н/о н/о +21.1 +20.2 95 +26 +26 душно 1015.8 959.6
05 9.12 СВ 1
{2}
н/о н/о +20.7 +19.9 95 +27 +27 душно 1016.3 960.0 1
06 9.12 В 1
{2}
н/о н/о +19.8 +19.2 96 +24 +24 комфорт 1016.7 960.2 4
08 9.12 В 1
{2}
н/о н/о +19.6 +19.1 97 +24 +24 комфорт 1017.3 960.7 0.6
07 9.12 В 1
{2}
н/о н/о +19.6 +19.1 97 +24 +24 комфорт 1017.0 960.4 1
09 9.12 В 1
{3}
н/о н/о +19.3 +18.8 97 +23 +23 комфорт 1018.0 961.3 1
10 9.12 СВ 1
{2}
н/о н/о +19.8 +19.2 96 +24 +24 комфорт 1017.7 961.1 0.2
11 9.12 В 1
{2}
н/о н/о +21.2 +20.2 94 +26 +26 душно 1017.8 961.5 0.2
12 9.12 В 2
{3}
н/о н/о +22.3 +20.1 87 +28 +28 душно 1018.1 962.0
14 9.12 СВ 2
{4}
н/о н/о +25.2 +20.3 74 +31 +31 очень
душно
1018.2 962.6
13 9.12 В 2
{4}
н/о н/о +24.7 +20.1 76 +30 +30 очень
душно
1017.8 962.1
15 9.12 С 2
{4}
н/о н/о +24.7 +19.5 73 +30 +30 очень
душно
1018.5 962.8
16 9.12 СВ 1
{4}
н/о н/о +25.2 +20.5 75 +31 +31 очень
душно
1018.2 962.6
17 9.12 СВ 1
{3}
н/о н/о +25.0 +20.2 75 +31 +31 очень
душно
1017.2 961.6
18 9.12 штиль 0
{3}
н/о н/о +23.7 +21.1 85 +30 +30 очень
душно
1017.6 961.7 0.2
20 9.12 Ю 1
{2}
н/о н/о +21.9 +20.7 93 +28 +28 душно 1018.6 962.4 0.2
19 9.12 Ю 2
{3}
н/о н/о +21.3 +20.1 93 +26 +26 душно 1018.2 961.9 0.2
21 9.12 ЮВ 1
{3}
н/о н/о +21.5 +20.0 91 +27 +27 душно 1019.0 962.7
22 9.12 ЮВ 1
{3}
н/о н/о +20.4 +19.3 93 +25 +25 комфорт 1020.0 963.4 0.8
23 9.12 В 1
{3}
н/о н/о +19.9 +19.0 95 +24 +24 комфорт 1020.8 964.1
00 10.12 штиль 0
{2}
н/о н/о +19.9 +19.2 96 +23 +23 комфорт 1021.6 964.8 0.2
02 10.12 штиль 0
{2}
н/о н/о +19.7 +19.1 96 +22 +22 комфорт 1021.9 965.1
01 10.12 В 1
{2}
н/о н/о +19.5 +18.9 96 +24 +24 комфорт 1022.2 965.3 0.2
03 10.12 штиль 0
{1}
н/о н/о +19.8 +19.1 96 +23 +23 комфорт 1021.3 964.5
04 10.12 штиль 0
{1}
н/о н/о +19.6 +19.0 96 +22 +22 комфорт 1021.1 964.3
05 10.12 штиль 0
{1}
н/о н/о +19.6 +19.0 96 +22 +22 комфорт 1020.8 964.0
06 10.12 ЮВ 1
{1}
н/о н/о +19.6 +18.9 96 +24 +24 комфорт 1020.6 963.8
08 10.12 штиль 0
{2}
н/о н/о +19.3 +18.5 95 +21 +21 комфорт 1021.2 964.3
07 10.12 штиль 0
{2}
н/о н/о +19.5 +18.4 93 +22 +22 комфорт 1020.9 964.1
09 10.12 штиль 0
{1}
н/о н/о +19.5 +18.8 96 +22 +22 комфорт 1021.8 964.9
10 10.12 штиль 0
{1}
н/о н/о +20.1 +19.1 94 +23 +23 комфорт 1022.4 965.6 0.2
11 10.12 В 1
{1}
н/о н/о +21.3 +19.4 89 +26 +26 душно 1022.3 965.7
12 10.12 В 1
{2}
н/о н/о +23.0 +19.5 81 +30 +30 очень
душно
1022.2 966.0
14 10.12 СВ 1
{2}
н/о н/о +24.7 +19.4 72 +30 +30 очень
душно
1022.0 966.1
13 10.12 В 1
{2}
н/о н/о +23.7 +20.1 80 +29 +29 душно 1022.4 966.3
15 10.12 В 1
{2}
н/о н/о +25.2 +19.7 72 +31 +31 очень
душно
1021.4 965.6
16 10.12 В 2
{3}
н/о н/о +27.3 +20.0 64 +33 +33 очень
душно
1020.4 965.0
17 10.12 ЮВ 1
{3}
н/о н/о +26.8 +19.3 63 +32 +32 очень
душно
1019.5 964.1
20 10.12 В 2
{4}
н/о н/о +24.0 +20.5 81 +30 +30 очень
душно
1018.4 962.6 0.2
19 10.12 ЮВ 1
{3}
н/о н/о +25.8 +20.6 73 +32 +32 очень
душно
1018.1 962.6
21 10.12 штиль 0
{4}
н/о н/о +22.6 +20.6 88 +29 +29 очень
душно
1019.2 963.1
22 10.12 Ю 1
{2}
н/о н/о +21.5 +20.3 93 +27 +27 душно 1019.8 963.4
23 10.12 Ю 1
{2}
н/о н/о +21.2 +20.1 93 +26 +26 душно 1020.3 963.8
00 11.12 штиль 0
{1}
н/о н/о +20.5 +19.8 96 +24 +24 комфорт 1021.1 964.5
02 11.12 штиль 0
{1}
н/о н/о +19.8 +19.3 97 +23 +23 комфорт 1022.0 965.2
01 11.12 штиль 0 н/о н/о +19.9 +19.3 96 +23 +23 комфорт 1021.9 965.1
03 11.12 штиль 0
{1}
н/о н/о +19.6 +19.1 97 +22 +22 комфорт 1021.4 964.6
04 11.12 штиль 0
{1}
н/о н/о +19.9 +19.3 96 +23 +23 комфорт 1020.8 964.1
05 11.12 штиль 0
{1}
н/о н/о +19.3 +18.7 96 +21 +21 комфорт 1020.0 963.2
06 11.12 штиль 0 н/о н/о +18.7 +18.1 96 +20 +20 1019.8 962.9
08 11.12 штиль 0 н/о н/о +19.1 +18.7 98 +21 +21 комфорт 1020.2 963.3
07 11.12 штиль 0 н/о н/о +18.7 +18.2 97 +20 +20 1019.5 962.6
09 11.12 штиль 0
{1}
н/о н/о +19.8 +19.2 96 +23 +23 комфорт 1020.5 963.8
10 11.12 штиль 0
{1}
н/о н/о +21.1 +19.5 91 +26 +26 душно 1020.9 964.4
11 11.12 В 1
{2}
н/о н/о +22.9 +20.0 84 +30 +30 очень
душно
1021.0 964.8
12 11.12 В 1
{2}
н/о н/о +26.1 +20.0 69 +32 +32 очень
душно
1020.4 964.8
14 11.12 СВ 1
{4}
н/о н/о +30.3 +20.5 56 +37 +37 очень
душно
1018.9 964.2 0.2
13 11.12 В 1
{3}
н/о н/о +28.5 +20.2 61 +35 +35 очень
душно
1019.8 964.7
15 11.12 В 2
{3}
н/о н/о +31.9 +19.9 49 +38 +38 очень
душно
1017.9 963.5
16 11.12 СВ 2
{4}
н/о н/о +31.9 +18.8 46 +37 +37 очень
душно
1017.2 962.8
17 11.12 В 1
{5}
н/о н/о +30.3 +20.1 54 +37 +37 очень
душно
1016.6 962.0
18 11.12 С 1
{3}
н/о н/о +31.0 +17.8 45 +35 +35 очень
душно
1015.1 960.7
20 11.12 В 1
{4}
н/о н/о +28.6 +19.7 59 +35 +35 очень
душно
1015.2 960.4
19 11.12 СВ 1
{2}
н/о н/о +31.7 +18.8 46 +37 +37 очень
душно
1014.6 960.3
21 11.12 В 1
{2}
н/о н/о +27.8 +20.4 64 +34 +34 очень
душно
1015.5 960.5
22 11.12 В 1
{2}
н/о н/о +24.5 +20.6 79 +30 +30 очень
душно
1017.2 961.5
23 11.12 С 1
{3}
н/о н/о +24.0 +19.5 76 +29 +29 душно 1017.5 961.7
00 12.12 В 1
{2}
н/о н/о +22.5 +19.7 84 +29 +29 очень
душно
1018.2 962.1
02 12.12 штиль 0
{1}
н/о н/о +22.0 +20.6 92 +28 +28 душно 1018.2 962.0
01 12.12 штиль 0
{1}
н/о н/о +22.2 +19.8 86 +28 +28 душно 1018.6 962.4
03 12.12 штиль 0
{1}
н/о н/о +21.0 +19.8 93 +26 +26 душно 1018.2 961.8
04 12.12 ЮВ 1
{1}
н/о н/о +20.6 +19.6 94 +26 +26 душно 1017.8 961.4
05 12.12 штиль 0
{1}
н/о н/о +19.7 +19.0 96 +22 +22 комфорт 1017.6 961.0
06 12.12 штиль 0 н/о н/о +20.0 +19.4 96 +23 +23 комфорт 1017.4 960.9
08 12.12 штиль 0
{1}
н/о н/о +20.6 +19.9 96 +25 +25 комфорт 1018.6 962.1
07 12.12 штиль 0
{1}
н/о н/о +20.3 +19.7 96 +24 +24 комфорт 1017.8 961.3
09 12.12 штиль 0 н/о н/о +20.7 +20.0 96 +25 +25 комфорт 1019.6 963.1
10 12.12 штиль 0
{1}
н/о н/о +24.1 +21.4 85 +31 +31 очень
душно
1018.9 963.0
11 12.12 В 2
{4}
н/о н/о +26.4 +20.4 70 +33 +33 очень
душно
1018.6 963.2
12 12.12 СВ 2
{4}
н/о н/о +28.2 +20.2 62 +35 +35 очень
душно
1018.3 963.2
14 12.12 СВ 2
{4}
н/о н/о +30.8 +20.3 54 +38 +38 очень
душно
1017.4 962.8
13 12.12 СВ 2
{4}
н/о н/о +30.4 +20.8 57 +38 +38 очень
душно
1017.9 963.2
15 12.12 С 1
{4}
н/о н/о +29.8 +19.9 55 +36 +36 очень
душно
1016.8 962.1
16 12.12 В 1
{4}
н/о н/о +30.4 +21.0 57 +38 +38 очень
душно
1015.9 961.3
17 12.12 Ю 2
{3}
н/о н/о +27.7 +21.0 67 +35 +35 очень
душно
1015.6 960.6
18 12.12 СВ 2
{5}
н/о н/о +27.5 +19.4 61 +33 +33 очень
душно
1014.8 959.8
20 12.12 В 1
{2}
н/о н/о +29.4 +19.9 57 +36 +36 очень
душно
1013.6 959.0
19 12.12 ЮВ 1
{4}
н/о н/о +28.2 +19.4 59 +34 +34 очень
душно
1013.9 959.1
21 12.12 ЮВ 1
{2}
н/о н/о +26.8 +19.9 66 +33 +33 очень
душно
1014.6 959.5
22 12.12 Ю 1
{1}
н/о н/о +24.4 +20.6 79 +30 +30 очень
душно
1015.2 959.6
23 12.12 ЮВ 1
{2}
н/о н/о +23.1 +20.3 84 +30 +30 очень
душно
1016.1 960.2
00 13.12 Ю 1
{3}
н/о н/о +22.9 +20.4 86 +30 +30 очень
душно
1017.0 961.0
02 13.12 ЮВ 1
{1}
н/о н/о +20.4 +19.2 93 +26 +26 душно 1017.0 960.6
01 13.12 ЮВ 1
{3}
н/о н/о +21.7 +20.2 91 +27 +27 душно 1017.4 961.2
03 13.12 С 1
{1}
н/о н/о +19.8 +18.9 95 +24 +24 комфорт 1016.3 959.8
04 13.12 Ю 1
{1}
н/о н/о +19.4 +18.6 95 +23 +23 комфорт 1016.1 959.5
05 13.12 Ю 1
{1}
н/о н/о +19.2 +18.3 95 +23 +23 комфорт 1016.5 959.9
06 13.12 штиль 0
{1}
н/о н/о +18.9 +18.3 96 +20 +20 1016.7 960.0
08 13.12 Ю 1
{2}
н/о н/о +19.4 +18.4 94 +23 +23 комфорт 1017.1 960.5
07 13.12 Ю 1
{2}
н/о н/о +19.3 +18.3 94 +22 +22 комфорт 1016.5 959.9
09 13.12 Ю 1
{2}
н/о н/о +19.9 +18.7 93 +24 +24 комфорт 1017.7 961.1
10 13.12 Ю 1
{2}
н/о н/о +21.3 +19.5 89 +26 +26 душно 1018.0 961.7
11 13.12 В 1
{2}
н/о н/о +25.9 +20.0 70 +32 +32 очень
душно
1017.4 962.0
12 13.12 С 1
{3}
н/о н/о +28.0 +20.1 62 +34 +34 очень
душно
1017.4 962.3
14 13.12 С 1
{3}
н/о н/о +31.0 +20.4 53 +38 +38 очень
душно
1015.8 961.3
13 13.12 СВ 1
{3}
н/о н/о +28.6 +19.9 59 +35 +35 очень
душно
1017.0 962.1
15 13.12 СВ 2
{4}
н/о н/о +31.1 +19.6 50 +37 +37 очень
душно
1015.0 960.6
16 13.12 СВ 1
{4}
н/о н/о +31.3 +19.7 50 +37 +37 очень
душно
1014.2 959.9
17 13.12 СВ 1
{3}
н/о н/о +31.0 +19.0 49 +36 +36 очень
душно
1013.4 959.1
18 13.12 В 1
{4}
н/о н/о +31.1 +18.7 48 +36 +36 очень
душно
1012.6 958.3
20 13.12 С 1
{3}
н/о н/о +31.0 +18.1 46 +35 +35 очень
душно
1011.7 957.5
19 13.12 С 1
{3}
н/о н/о +31.1 +18.0 46 +36 +36 очень
душно
1012.0 957.8
21 13.12 С 1
{2}
н/о н/о +29.0 +18.2 52 +34 +34 очень
душно
1012.1 957.5
22 13.12 штиль 0
{1}
н/о н/о +23.7 +18.5 73 +28 +28 душно 1013.7 958.1
23 13.12 СВ 1
{1}
н/о н/о +21.8 +18.9 84 +27 +27 душно 1014.5 958.5
00 14.12 штиль 0
{1}
н/о н/о +20.8 +19.3 91 +25 +25 комфорт 1015.3 959.0
02 14.12 штиль 0 н/о н/о +19.3 +18.4 95 +21 +21 комфорт 1016.2 959.6
01 14.12 штиль 0
{1}
н/о н/о +19.8 +18.6 93 +22 +22 комфорт 1015.9 959.4
03 14.12 штиль 0
{1}
н/о н/о +18.6 +17.9 96 +20 +20 1016.2 959.5
04 14.12 штиль 0
{1}
н/о н/о +18.1 +17.4 96 +18 +18 1016.0 959.2
05 14.12 штиль 0 н/о н/о +17.5 +16.8 96 +17 +17 1015.9 959.0
06 14.12 Ю 1
{1}
н/о н/о +17.6 +17.1 97 +19 +19 1015.9 959.0
08 14.12 штиль 0 н/о н/о +16.9 +16.4 97 +17 +17 1016.7 959.6
07 14.12 штиль 0
{1}
н/о н/о +17.0 +16.4 96 +17 +17 1016.2 959.2
09 14.12 штиль 0
{1}
н/о н/о +17.2 +16.8 97 +17 +17 1017.6 960.5
10 14.12 штиль 0
{1}
н/о н/о +21.7 +18.7 83 +27 +27 душно 1017.3 961.1
11 14.12 штиль 0
{1}
н/о н/о +25.3 +18.5 66 +30 +30 душно 1017.1 961.6
12 14.12 СВ 1
{2}
н/о н/о +27.8 +19.3 60 +33 +33 очень
душно
1017.1 962.0
14 14.12 СВ 1
{3}
н/о н/о +31.7 +18.9 47 +37 +37 очень
душно
1015.4 961.1
13 14.12 СВ 1
{3}
н/о н/о +29.9 +18.9 52 +35 +35 очень
душно
1016.5 961.8
15 14.12 СВ 1
{3}
н/о н/о +32.8 +17.1 39 +36 +36 очень
душно
1014.9 960.8
16 14.12 СВ 1
{3}
н/о н/о +33.5 +18.4 41 +38 +38 очень
душно
1013.9 960.0
17 14.12 В 1
{3}
н/о н/о +33.1 +16.4 37 +36 +36 очень
душно
1013.5 959.5
18 14.12 СВ 1
{3}
н/о н/о +33.3 +17.6 39 +37 +37 очень
душно
1012.9 959.0
20 14.12 В 1
{2}
н/о н/о +32.8 +17.8 41 +37 +37 очень
душно
1012.4 958.4
19 14.12 В 1
{3}
н/о н/о +33.3 +15.9 35 +36 +36 очень
душно
1012.5 958.6
21 14.12 штиль 0
{2}
н/о н/о +29.9 +19.4 53 +36 +36 очень
душно
1013.2 958.7
22 14.12 штиль 0 н/о н/о +24.4 +19.7 75 +30 +30 очень
душно
1014.8 959.2
23 14.12 штиль 0
{1}
н/о н/о +22.3 +19.8 86 +28 +28 душно 1015.9 959.9
00 15.12 штиль 0
{1}
н/о н/о +21.3 +19.8 91 +26 +26 душно 1017.0 960.7

 

Местоположение метеостанции Sao Romao (Бразилия): широта -16.37 долгота -45.12 высота над уровнем моря 462 м.

В архиве по умолчанию представлена погода в Sao Romao за последнюю неделю. Архивные данные за месяц целиком и за предыдущие месяцы, начиная с января 2011 года, Вы можете получить, выбрав интересующий диапазон дат из раскрывающегося списка и нажав кнопку "Ввод!".


*Определитесь, кто Вы:
робот инопланетянин человек

Внимание! Время в таблицах - всемирное. Для получения местного времени необходимо прибавить поправку, которая в Sao Romao равна -3 ч.

Смотрите также архив погоды в соседних городах и на ближайших метеорологических станциях:

Погода в Pirapora (Бразилия) (103 км)
Погода в Pirapora (Бразилия) (108 км)
Погода в Arinos (Бразилия) (112 км)
Погода в Chapada Gaucha (Бразилия) (130 км)
Погода в Januaria (Бразилия) (132 км)
Погода в Montes Claros (Бразилия) (139 км)
Погода в Montes Claros (Бразилия) (140 км)
Погода в Buritis (Бразилия) (169 км)
Погода в Mocambinho (Бразилия) (186 км)
Погода в Unai (Бразилия) (189 км)

Пояснения к столбцам:

Ветер - указаны скорость ветра в м/с - средняя за 10 мин, порывы в срок и между сроками (в фигурных скобках) и направление, откуда дует ветер: С - северный, СВ - северо-восточный, В - восточный, ЮВ - юго-восточный, Ю - южный, ЮЗ - юго-западный, З - западный, СЗ - северо-западный.
Видимость - горизонтальная дальность видимости в метрах или километрах. При видимости от 1 до 10 км при отсутствии осадков обычно наблюдается дымка, при ухудшении видимости до 1 км и менее - туман. В сухую погоду видимость может ухудшаться дымом, пылью или мглою.
Явления - указаны атмосферные явления, наблюдавшиеся в срок или в последний час перед сроком; фигурными скобками обозначены явления, наблюдавшиеся между сроками (за 1-3 часа до срока); квадратными скобками обозначены град или гололедные отложения с указанием их диаметра в мм.
Облачность - указаны через наклонную черту общая и нижняя облачность в баллах и высота нижней границы облаков в метрах; квадратными скобками обозначены формы облаков: Ci - перистые, Cs - перисто-слоистые, Cc - перисто-кучевые, Ac - высококучевые, As - высокослоистые, Sc - слоисто-кучевые, Ns - слоисто-дождевые, Cu - кучевые, Cb - кучево-дождевые. Подробнее классификацию облаков см. в Атласе облаков (PDF).
T - Температура воздуха - температура, измеренная на высоте 2 м над землей.
Td - Температура точки росы - температура, при понижении до которой содержащийся в воздухе водяной пар достигнет насыщения.
f - Относительная влажность воздуха - влажноcть воздуха, измеренная на высоте 2 м над землей.
Te - Эффективная температура - температура, которую ощущает одетый по сезону человек в тени. Характеристика душности погоды. При расчете учитывается влияние влажности воздуха и скорости ветра на теплоощущения человека.
Tes - Эффективная температура на солнце - температура, которую ощущает человек, с поправкой на солнечный нагрев. Характеристика знойности погоды. Зависит от высоты солнца над горизонтом, облачности и скорости ветра. Ночью, в пасмурную погоду, а также при ветре 12 м/с и более поправка равна нулю.
P - Атмосферное давление - приведенное к уровню моря атмосферное давление.
Po - Атмосферное давление - измеренное на уровне метеостанции атмосферное давление.
Tmin - Минимальная температура - минимум температуры воздуха на высоте 2 м над землей.
Tmax - Максимальная температура - максимум температуры воздуха на высоте 2 м над землей.
R - Количество осадков - Количество выпавших осадков за период времени, мм. При наведении курсора мыши на число - период времени, за который выпало указанное количество осадков.
R24 - Количество осадков - Количество выпавших осадков за 24 часа, мм.
S - Снежный покров - Высота снежного покрова, см. При наведении курсора мыши на число - состояние снежного покрова и степень покрытия местности в баллах.